Time,TemperatureF,DewpointF,PressureIn,WindDirection,WindDirectionDegrees,WindSpeedMPH,WindSpeedGustMPH,Humidity,HourlyPrecipIn,Conditions,Clouds,dailyrainin,SoftwareType,DateUTC
2013-07-05 00:01:00,75.0,70.0,-100.00,SSW,195,0.0,5.0,85,-99.99,,,-99.99,,2013-07-05 04:01:00,
2013-07-05 00:11:00,75.0,70.0,-100.00,SSW,200,0.0,3.0,85,-99.99,,,-99.99,,2013-07-05 04:11:00,
2013-07-05 00:22:00,75.0,70.0,-100.00,SSW,210,1.0,4.0,85,-99.99,,,-99.99,,2013-07-05 04:22:00,
2013-07-05 00:33:00,75.0,70.0,-100.00,South,180,0.0,2.0,86,-99.99,,,-99.99,,2013-07-05 04:33:00,
2013-07-05 00:43:00,75.0,71.0,-100.00,SSW,205,1.0,2.0,86,-99.99,,,-99.99,,2013-07-05 04:43:00,
2013-07-05 00:53:00,75.0,71.0,-100.00,SSW,205,1.0,2.0,86,-99.99,,,-99.99,,2013-07-05 04:53:00,
2013-07-05 01:01:00,75.0,71.0,-100.00,South,180,2.0,4.0,86,-99.99,,,-99.99,,2013-07-05 05:01:00,
2013-07-05 01:12:00,75.0,71.0,-100.00,SSE,160,0.0,2.0,86,-99.99,,,-99.99,,2013-07-05 05:12:00,
2013-07-05 01:22:00,75.0,71.0,-100.00,South,175,1.0,4.0,86,-99.99,,,-99.99,,2013-07-05 05:22:00,
2013-07-05 01:33:00,75.0,71.0,-100.00,South,175,1.0,4.0,86,-99.99,,,-99.99,,2013-07-05 05:33:00,
2013-07-05 01:43:00,74.0,71.0,-100.00,SSW,205,0.0,2.0,87,-99.99,,,-99.99,,2013-07-05 05:43:00,
2013-07-05 01:52:00,74.0,71.0,-100.00,SSW,205,0.0,2.0,87,-99.99,,,-99.99,,2013-07-05 05:52:00,
2013-07-05 02:02:00,74.0,71.0,-100.00,SSE,150,0.0,1.0,89,-99.99,,,-99.99,,2013-07-05 06:02:00,
2013-07-05 02:13:00,74.0,71.0,-100.00,SSE,155,0.0,0.0,89,-99.99,,,-99.99,,2013-07-05 06:13:00,
2013-07-05 02:23:00,74.0,71.0,-100.00,SSE,155,0.0,0.0,89,-99.99,,,-99.99,,2013-07-05 06:23:00,
2013-07-05 02:34:00,74.0,72.0,-100.00,SSE,155,0.0,0.0,92,-99.99,,,-99.99,,2013-07-05 06:34:00,
2013-07-05 02:44:00,73.0,72.0,-100.00,SE,130,0.0,0.0,94,-99.99,,,-99.99,,2013-07-05 06:44:00,
2013-07-05 02:53:00,73.0,72.0,-100.00,East,90,0.0,0.0,95,-99.99,,,-99.99,,2013-07-05 06:53:00,
2013-07-05 03:02:00,73.0,72.0,-100.00,ENE,75,0.0,0.0,96,-99.99,,,-99.99,,2013-07-05 07:02:00,
2013-07-05 03:12:00,73.0,72.0,-100.00,East,100,0.0,1.0,97,-99.99,,,-99.99,,2013-07-05 07:12:00,
2013-07-05 03:23:00,73.0,72.0,-100.00,ENE,75,0.0,0.0,98,-99.99,,,-99.99,,2013-07-05 07:23:00,
2013-07-05 03:34:00,73.0,72.0,-100.00,NE,45,0.0,0.0,99,-99.99,,,-99.99,,2013-07-05 07:34:00,
2013-07-05 03:43:00,72.0,72.0,-100.00,ENE,65,0.0,0.0,99,-99.99,,,-99.99,,2013-07-05 07:43:00,
2013-07-05 03:53:00,72.0,72.0,-100.00,East,100,0.0,2.0,99,-99.99,,,-99.99,,2013-07-05 07:53:00,
2013-07-05 04:03:00,72.0,72.0,-100.00,East,100,0.0,2.0,99,-99.99,,,-99.99,,2013-07-05 08:03:00,
2013-07-05 04:12:00,72.0,72.0,-100.00,South,190,1.0,3.0,99,-99.99,,,-99.99,,2013-07-05 08:12:00,
2013-07-05 04:23:00,71.0,71.0,-100.00,South,170,0.0,0.0,99,-99.99,,,-99.99,,2013-07-05 08:23:00,
2013-07-05 04:33:00,71.0,71.0,-100.00,South,170,0.0,0.0,99,-99.99,,,-99.99,,2013-07-05 08:33:00,
2013-07-05 04:44:00,71.0,71.0,-100.00,East,100,0.0,7.0,99,-99.99,,,-99.99,,2013-07-05 08:44:00,
2013-07-05 04:55:00,71.0,71.0,-100.00,East,95,0.0,2.0,99,-99.99,,,-99.99,,2013-07-05 08:55:00,
2013-07-05 05:08:00,71.0,71.0,-100.00,ESE,105,0.0,4.0,99,-99.99,,,-99.99,,2013-07-05 09:08:00,
2013-07-05 05:16:00,71.0,71.0,-100.00,East,80,2.0,5.0,99,-99.99,,,-99.99,,2013-07-05 09:16:00,
2013-07-05 05:26:00,71.0,71.0,-100.00,ESE,105,2.0,5.0,99,-99.99,,,-99.99,,2013-07-05 09:26:00,
2013-07-05 05:37:00,71.0,71.0,-100.00,ENE,75,2.0,4.0,99,-99.99,,,-99.99,,2013-07-05 09:37:00,
2013-07-05 05:47:00,71.0,71.0,-100.00,East,100,2.0,4.0,99,-99.99,,,-99.99,,2013-07-05 09:47:00,
2013-07-05 05:54:00,71.0,71.0,-100.00,ENE,70,2.0,4.0,99,-99.99,,,-99.99,,2013-07-05 09:54:00,
2013-07-05 06:18:00,71.0,71.0,-100.00,East,100,0.0,4.0,99,-99.99,,,-99.99,,2013-07-05 10:18:00,
2013-07-05 06:26:00,71.0,71.0,-100.00,SE,145,1.0,4.0,99,-99.99,,,-99.99,,2013-07-05 10:26:00,
2013-07-05 06:47:00,71.0,71.0,-100.00,ENE,65,0.0,4.0,99,-99.99,,,-99.99,,2013-07-05 10:47:00,
2013-07-05 06:55:00,71.0,71.0,-100.00,East,85,2.0,7.0,99,-99.99,,,-99.99,,2013-07-05 10:55:00,
2013-07-05 07:09:00,71.0,71.0,-100.00,East,95,2.0,7.0,99,-99.99,,,-99.99,,2013-07-05 11:09:00,
2013-07-05 07:18:00,71.0,71.0,-100.00,SSE,160,4.0,11.0,99,-99.99,,,-99.99,,2013-07-05 11:18:00,
2013-07-05 07:25:00,71.0,71.0,-100.00,SSE,165,3.0,9.0,99,-99.99,,,-99.99,,2013-07-05 11:25:00,
2013-07-05 07:37:00,71.0,71.0,-100.00,SE,145,5.0,11.0,99,-99.99,,,-99.99,,2013-07-05 11:37:00,
2013-07-05 07:57:00,71.0,71.0,-100.00,East,100,3.0,10.0,99,-99.99,,,-99.99,,2013-07-05 11:57:00,
2013-07-05 08:09:00,72.0,72.0,-100.00,SSE,160,2.0,9.0,99,-99.99,,,-99.99,,2013-07-05 12:09:00,
2013-07-05 08:16:00,72.0,72.0,-100.00,SSE,160,2.0,9.0,99,-99.99,,,-99.99,,2013-07-05 12:16:00,
2013-07-05 08:25:00,72.0,72.0,-100.00,SSE,160,2.0,9.0,99,-99.99,,,-99.99,,2013-07-05 12:25:00,
2013-07-05 08:37:00,72.0,72.0,-100.00,South,175,3.0,7.0,99,-99.99,,,-99.99,,2013-07-05 12:37:00,
2013-07-05 08:48:00,72.0,72.0,-100.00,South,175,2.0,7.0,99,-99.99,,,-99.99,,2013-07-05 12:48:00,
2013-07-05 09:00:00,72.0,72.0,-100.00,SSE,160,4.0,9.0,99,-99.99,,,-99.99,,2013-07-05 13:00:00,
2013-07-05 09:13:00,74.0,74.0,-100.00,SSE,160,3.0,12.0,99,-99.99,,,-99.99,,2013-07-05 13:13:00,
2013-07-05 09:25:00,74.0,74.0,-100.00,South,190,4.0,12.0,99,-99.99,,,-99.99,,2013-07-05 13:25:00,
2013-07-05 09:39:00,76.0,75.0,-100.00,South,185,4.0,7.0,98,-99.99,,,-99.99,,2013-07-05 13:39:00,
2013-07-05 09:48:00,76.0,74.0,-100.00,SSE,155,3.0,12.0,92,-99.99,,,-99.99,,2013-07-05 13:48:00,
2013-07-05 09:55:00,77.0,73.0,-100.00,SE,140,7.0,12.0,87,-99.99,,,-99.99,,2013-07-05 13:55:00,
2013-07-05 10:07:00,77.0,72.0,-100.00,SSE,160,4.0,13.0,84,-99.99,,,-99.99,,2013-07-05 14:07:00,
2013-07-05 10:16:00,76.0,71.0,-100.00,SSW,195,10.0,16.0,83,-99.99,,,-99.99,,2013-07-05 14:16:00,
2013-07-05 10:46:00,76.0,70.0,-100.00,South,190,4.0,12.0,81,-99.99,,,-99.99,,2013-07-05 14:46:00,
2013-07-05 10:55:00,77.0,71.0,-100.00,South,190,7.0,13.0,81,-99.99,,,-99.99,,2013-07-05 14:55:00,
2013-07-05 11:07:00,78.0,70.0,-100.00,South,175,7.0,14.0,77,-99.99,,,-99.99,,2013-07-05 15:07:00,
2013-07-05 11:17:00,78.0,70.0,-100.00,WSW,245,6.0,13.0,77,-99.99,,,-99.99,,2013-07-05 15:17:00,
2013-07-05 11:34:00,78.0,70.0,-100.00,SW,225,7.0,13.0,75,-99.99,,,-99.99,,2013-07-05 15:34:00,
2013-07-05 12:02:00,76.0,71.0,-100.00,SSW,200,5.0,11.0,84,-99.99,,,-99.99,,2013-07-05 16:02:00,
2013-07-05 12:11:00,76.0,71.0,-100.00,SSW,200,5.0,11.0,84,-99.99,,,-99.99,,2013-07-05 16:11:00,
2013-07-05 12:33:00,75.0,73.0,-100.00,SSW,210,2.0,9.0,91,-99.99,,,-99.99,,2013-07-05 16:33:00,
2013-07-05 13:02:00,75.0,72.0,-100.00,SW,235,6.0,9.0,89,-99.99,,,-99.99,,2013-07-05 17:02:00,
2013-07-05 13:22:00,74.0,71.0,-100.00,WSW,245,5.0,10.0,88,-99.99,,,-99.99,,2013-07-05 17:22:00,
2013-07-05 13:33:00,74.0,70.0,-100.00,WSW,245,6.0,13.0,88,-99.99,,,-99.99,,2013-07-05 17:33:00,
2013-07-05 13:43:00,75.0,71.0,-100.00,WSW,240,5.0,11.0,88,-99.99,,,-99.99,,2013-07-05 17:43:00,
2013-07-05 14:11:00,77.0,70.0,-100.00,SW,230,7.0,10.0,81,-99.99,,,-99.99,,2013-07-05 18:11:00,
2013-07-05 14:43:00,76.0,71.0,-100.00,WSW,255,5.0,9.0,83,-99.99,,,-99.99,,2013-07-05 18:43:00,
2013-07-05 14:53:00,76.0,71.0,-100.00,WSW,255,5.0,9.0,83,-99.99,,,-99.99,,2013-07-05 18:53:00,
2013-07-05 15:34:00,75.0,73.0,-100.00,WSW,255,4.0,9.0,93,-99.99,,,-99.99,,2013-07-05 19:34:00,
2013-07-05 16:02:00,74.0,72.0,-100.00,West,265,6.0,11.0,91,-99.99,,,-99.99,,2013-07-05 20:02:00,
2013-07-05 16:22:00,74.0,72.0,-100.00,West,260,4.0,8.0,91,-99.99,,,-99.99,,2013-07-05 20:22:00,
2013-07-05 16:33:00,74.0,72.0,-100.00,West,260,4.0,8.0,91,-99.99,,,-99.99,,2013-07-05 20:33:00,
2013-07-05 16:43:00,74.0,71.0,-100.00,West,265,1.0,6.0,90,-99.99,,,-99.99,,2013-07-05 20:43:00,
2013-07-05 17:01:00,74.0,71.0,-100.00,WSW,240,3.0,6.0,91,-99.99,,,-99.99,,2013-07-05 21:01:00,
2013-07-05 17:12:00,74.0,71.0,-100.00,WSW,245,1.0,6.0,91,-99.99,,,-99.99,,2013-07-05 21:12:00,
2013-07-05 17:22:00,74.0,71.0,-100.00,WSW,245,1.0,6.0,91,-99.99,,,-99.99,,2013-07-05 21:22:00,
2013-07-05 17:34:00,74.0,71.0,-100.00,WSW,245,1.0,6.0,91,-99.99,,,-99.99,,2013-07-05 21:34:00,
2013-07-05 17:43:00,77.0,71.0,-100.00,WNW,290,1.0,4.0,80,-99.99,,,-99.99,,2013-07-05 21:43:00,
2013-07-05 17:53:00,79.0,69.0,-100.00,SW,225,1.0,5.0,70,-99.99,,,-99.99,,2013-07-05 21:53:00,
2013-07-05 18:02:00,79.0,68.0,-100.00,West,270,3.0,5.0,68,-99.99,,,-99.99,,2013-07-05 22:02:00,
2013-07-05 18:11:00,79.0,69.0,-100.00,West,265,1.0,3.0,69,-99.99,,,-99.99,,2013-07-05 22:11:00,
2013-07-05 18:22:00,79.0,69.0,-100.00,WNW,285,1.0,4.0,69,-99.99,,,-99.99,,2013-07-05 22:22:00,
2013-07-05 18:34:00,80.0,69.0,-100.00,West,280,1.0,3.0,68,-99.99,,,-99.99,,2013-07-05 22:34:00,
2013-07-05 18:43:00,80.0,69.0,-100.00,NNW,335,1.0,5.0,69,-99.99,,,-99.99,,2013-07-05 22:43:00,
2013-07-05 18:53:00,79.0,69.0,-100.00,North,0,1.0,6.0,69,-99.99,,,-99.99,,2013-07-05 22:53:00,
2013-07-05 19:02:00,79.0,69.0,-100.00,North,0,1.0,6.0,69,-99.99,,,-99.99,,2013-07-05 23:02:00,
2013-07-05 19:11:00,78.0,68.0,-100.00,WNW,295,1.0,4.0,69,-99.99,,,-99.99,,2013-07-05 23:11:00,
2013-07-05 19:23:00,77.0,68.0,-100.00,NNW,340,0.0,3.0,72,-99.99,,,-99.99,,2013-07-05 23:23:00,
2013-07-05 19:32:00,77.0,68.0,-100.00,NW,310,1.0,4.0,73,-99.99,,,-99.99,,2013-07-05 23:32:00,
2013-07-05 19:43:00,78.0,69.0,-100.00,NW,305,2.0,4.0,74,-99.99,,,-99.99,,2013-07-05 23:43:00,
2013-07-05 19:53:00,76.0,68.0,-100.00,NNW,345,2.0,6.0,76,-99.99,,,-99.99,,2013-07-05 23:53:00,
2013-07-05 20:01:00,76.0,69.0,-100.00,North,0,1.0,3.0,80,-99.99,,,-99.99,,2013-07-06 00:01:00,
2013-07-05 20:12:00,75.0,69.0,-100.00,North,5,1.0,5.0,81,-99.99,,,-99.99,,2013-07-06 00:12:00,
2013-07-05 20:22:00,75.0,69.0,-100.00,NNW,330,0.0,2.0,81,-99.99,,,-99.99,,2013-07-06 00:22:00,
2013-07-05 20:33:00,75.0,69.0,-100.00,NNE,25,1.0,4.0,81,-99.99,,,-99.99,,2013-07-06 00:33:00,
2013-07-05 20:42:00,75.0,69.0,-100.00,NNE,20,0.0,1.0,83,-99.99,,,-99.99,,2013-07-06 00:42:00,
2013-07-05 20:53:00,75.0,69.0,-100.00,NNE,20,0.0,1.0,83,-99.99,,,-99.99,,2013-07-06 00:53:00,
2013-07-05 21:02:00,75.0,69.0,-100.00,North,355,0.0,2.0,83,-99.99,,,-99.99,,2013-07-06 01:02:00,
2013-07-05 21:12:00,75.0,69.0,-100.00,NW,325,0.0,1.0,83,-99.99,,,-99.99,,2013-07-06 01:12:00,
2013-07-05 21:33:00,74.0,69.0,-100.00,North,350,0.0,1.0,84,-99.99,,,-99.99,,2013-07-06 01:33:00,
2013-07-05 21:43:00,74.0,70.0,-100.00,North,0,0.0,0.0,87,-99.99,,,-99.99,,2013-07-06 01:43:00,
2013-07-05 22:43:00,75.0,71.0,-100.00,East,80,1.0,2.0,89,-99.99,,,-99.99,,2013-07-06 02:43:00,
2013-07-05 22:53:00,75.0,71.0,-100.00,East,80,1.0,2.0,89,-99.99,,,-99.99,,2013-07-06 02:53:00,
2013-07-05 23:02:00,75.0,71.0,-100.00,East,80,1.0,2.0,89,-99.99,,,-99.99,,2013-07-06 03:02:00,
2013-07-05 23:52:00,74.0,71.0,-100.00,SSE,165,0.0,0.0,90,-99.99,,,-99.99,,2013-07-06 03:52:00,